[[[{"header":{"parameterUnit":"kt","parameterCategory":2,"dx":1,"dy":1,"la1":30.253999710083008,"la2":30.299108505249023,"lo1":-89.0895004272461,"lo2":-89.04439544677734,"nx":28,"ny":28,"refTime":"2022-10-11T21:00:00:Z","depth":0,"parameterNumber":1,"parameterNumberName":"U-component_of_WINDS"},"data":[-3.8582,-3.8587,-3.8607,-3.8621,-3.8642,-3.8655,-3.8665,-3.8681,-3.87,-3.8716,-3.8729,-3.875,-3.8775,-3.8795,-3.8809,-3.8818,-3.8821,-3.8807,-3.8819,-3.8867,-3.8874,-3.8882,-3.8881,-3.8808,-3.8808,-3.8765,-3.8765,-3.8765,-3.8611,-3.8631,-3.8646,-3.8674,-3.8685,-3.8711,-3.8735,-3.8743,-3.8753,-3.8776,-3.8791,-3.8807,-3.8823,-3.8855,-3.8872,-3.8873,-3.8885,-3.8876,-3.8874,-3.8877,-3.893,-3.8929,-3.8865,-3.8865,-3.8865,-3.8865,-3.8865,-3.8865,-3.8667,-3.867,-3.8699,-3.8715,-3.8735,-3.8754,-3.8759,-3.8786,-3.88,-3.8823,-3.8846,-3.8858,-3.8884,-3.8917,-3.8934,-3.8943,-3.8957,-3.8953,-3.8951,-3.8948,-3.8941,-3.8993,-3.8947,-3.8948,-3.8948,-3.8948,-3.8948,0,-3.8714,-3.8732,-3.8748,-3.877,-3.8783,-3.8802,-3.8823,-3.8828,-3.8873,-3.8882,-3.8898,-3.8911,-3.8935,-3.8951,-3.8974,-3.8992,-3.9018,-3.9025,-3.9021,-3.9008,-3.8992,-3.8996,-3.9077,-3.9025,-3.9026,-3.9027,-3.9027,-3.9027,-3.877,-3.8772,-3.8815,-3.8823,-3.884,-3.8854,-3.8866,-3.8906,-3.8916,-3.8948,-3.8948,-3.8966,-3.8982,-3.9004,-3.9035,-3.9053,-3.9065,-3.9042,-3.9068,-3.9055,-3.906,-3.9058,-3.9057,-3.9035,-3.9034,-3.9033,-3.9033,0,-3.8798,-3.8835,-3.8845,-3.8888,-3.8898,-3.8898,-3.8934,-3.8938,-3.8965,-3.8974,-3.8979,-3.9019,-3.9034,-3.907,-3.9094,-3.9112,-3.9107,-3.9121,-3.9097,-3.91,-3.908,-3.908,-3.9018,-3.901,-3.9091,-3.909,-3.9089,0,-3.8858,-3.886,-3.8914,-3.8918,-3.892,-3.8961,-3.8962,-3.8985,-3.9011,-3.9019,-3.9057,-3.9064,-3.9109,-3.912,-3.9146,-3.9149,-3.9155,-3.9168,-3.9174,-3.9162,-3.916,-3.9166,-3.9168,-3.9193,-3.9193,-3.9194,-3.9194,0,-3.8897,-3.893,-3.8937,-3.895,-3.8997,-3.8999,-3.9018,-3.9048,-3.906,-3.9082,-3.9089,-3.9111,-3.9123,-3.9138,-3.9171,-3.9187,-3.9178,-3.9206,-3.919,-3.9189,-3.9184,-3.9183,-3.9122,-3.9194,-3.9194,-3.9194,-3.9195,0,-3.8951,-3.8973,-3.898,-3.9019,-3.9026,-3.9032,-3.9056,-3.907,-3.9098,-3.9116,-3.9133,-3.9162,-3.9171,-3.9196,-3.9207,-3.9218,-3.9226,-3.924,-3.924,-3.924,-3.9266,-3.9222,-3.9164,-3.9157,-3.9243,-3.9243,-3.9244,0,-3.8983,-3.9001,-3.9037,-3.9043,-3.9056,-3.9097,-3.9104,-3.913,-3.9154,-3.9167,-3.9194,-3.9209,-3.9236,-3.9246,-3.9247,-3.9274,-3.9261,-3.9278,-3.9292,-3.9292,-3.928,-3.9227,-3.9207,-3.9173,-3.9249,-3.9249,-3.9248,0,-3.9012,-3.9071,-3.907,-3.9086,-3.9128,-3.914,-3.9149,-3.9174,-3.918,-3.9207,-3.9213,-3.9238,-3.9257,-3.9274,-3.93,-3.93,-3.9271,-3.9321,-3.9323,-3.9308,-3.9257,-3.9238,-3.9232,-3.9289,-3.9288,-3.9288,-3.9253,0,-3.9079,-3.9095,-3.9094,-3.9131,-3.9147,-3.9154,-3.9194,-3.9205,-3.9229,-3.9255,-3.9267,-3.9298,-3.9324,-3.9329,-3.9353,-3.9341,-3.9348,-3.937,-3.9395,-3.9361,-3.935,-3.9346,-3.9407,-3.9408,-3.9409,-3.941,0,0,-3.9099,-3.9123,-3.9163,-3.9174,-3.9189,-3.9234,-3.9237,-3.9258,-3.9297,-3.9306,-3.9321,-3.9359,-3.9385,-3.9394,-3.9387,-3.9399,-3.9399,-3.941,-3.9378,-3.9374,-3.9371,-3.9358,-3.9354,-3.9411,-3.9412,-3.9412,-3.9412,0,-3.9132,-3.9159,-3.9164,-3.9187,-3.9223,-3.9251,-3.9252,-3.9295,-3.9312,-3.9326,-3.936,-3.9373,-3.9404,-3.9424,-3.9439,-3.9411,-3.9435,-3.9416,-3.9386,-3.9385,-3.938,-3.9376,-3.9363,-3.9358,-3.9414,-3.9414,-3.9414,0,-3.9166,-3.9198,-3.9206,-3.9246,-3.927,-3.9283,-3.932,-3.9334,-3.9344,-3.9391,-3.9404,-3.9427,-3.9459,-3.9465,-3.9469,-3.9483,-3.9465,-3.9479,-3.9475,-3.9476,-3.9476,-3.947,-3.9465,-3.9533,-3.9534,-3.9534,0,0,-3.9188,-3.9204,-3.9252,-3.9256,-3.9268,-3.9311,-3.9323,-3.9349,-3.9378,-3.9389,-3.9419,-3.9445,-3.9464,-3.9475,-3.9494,-3.9496,-3.9504,-3.9492,-3.9487,-3.9482,-3.948,-3.9479,-3.9473,-3.9535,-3.9535,-3.9535,0,0,-3.9199,-3.9255,-3.9275,-3.9285,-3.9311,-3.9358,-3.9358,-3.9383,-3.9406,-3.9409,-3.9453,-3.9462,-3.9468,-3.949,-3.9498,-3.9503,-3.9528,-3.9527,-3.9489,-3.9483,-3.9477,-3.9471,-3.9539,0,0,0,0,0,-3.9253,-3.9248,-3.9266,-3.9273,-3.9324,-3.9349,-3.9355,-3.9392,-3.9408,-3.9407,-3.9436,-3.9463,-3.9502,-3.951,-3.9517,-3.9507,-3.9547,-3.9545,-3.9543,-3.9494,-3.9487,-3.9481,0,0,0,0,0,0,-3.9257,-3.9266,-3.9266,-3.9312,-3.9324,-3.9349,-3.9384,-3.9394,-3.9409,-3.9414,-3.9456,-3.9464,-3.9495,-3.951,-3.9515,-3.9505,-3.9537,-3.9546,-3.9544,-3.9543,-3.9492,-3.9486,-3.9481,0,0,0,0,0,-3.926,-3.9267,-3.934,-3.9312,-3.9323,-3.937,-3.9385,-3.9393,-3.9405,-3.9451,-3.946,-3.9432,-3.9494,-3.9501,-3.9513,-3.9502,-3.9534,-3.9535,-3.9545,-3.9543,-3.9542,-3.9489,0,0,0,0,0,0,-3.9262,-3.9275,-3.9343,-3.9347,-3.9318,-3.9369,-3.9379,-3.9392,-3.9442,-3.9451,-3.9428,-3.9431,-3.9493,-3.9498,-3.9503,-3.9498,-3.9531,-3.9533,-3.9534,-3.9544,-3.9543,-3.9542,0,0,0,0,0,0,-3.9271,-3.9278,-3.9345,-3.935,-3.9355,-3.9368,-3.9377,-3.9393,-3.9442,-3.9417,-3.9421,-3.9429,-3.9485,-3.9497,-3.9501,-3.9525,-3.9529,-3.9531,-3.9532,-3.9533,-3.9543,-3.9542,0,0,0,0,0,0,-3.9275,-3.9281,-3.9349,-3.9353,-3.9358,-3.941,-3.9383,-3.9433,-3.9447,-3.9414,-3.9449,-3.945,-3.9482,-3.9487,-3.9499,-3.9521,-3.9524,-3.9529,-3.953,-3.9531,-3.9531,0,0,0,0,0,0,0,-3.9278,-3.9227,-3.9317,-3.9356,-3.936,-3.9388,-3.939,-3.9391,-3.9447,-3.9448,-3.9449,-3.945,-3.9519,-3.9521,-3.9523,-3.9517,0,0,-3.9529,-3.9529,0,0,0,0,0,0,0,0,-3.9225,-3.9227,-3.9317,-3.9318,-3.9319,-3.9389,-3.939,-3.939,-3.9447,-3.9448,-3.9449,-3.9449,-3.9519,-3.9521,-3.9522,0,0,0,0,0,0,0,0,0,0,0,0,0,0,0,-3.9317,-3.9318,0,-3.9389,-3.9389,-3.939,-3.9448,-3.9448,-3.9449,-3.9449,-3.952,-3.9521,-3.9522,0,0,0,0,0,0,0,0,0,0,0,0,0,0,0,0,0,0,0,0,0,0,0,0,0,0,0,0,0,0,0,0,0,0,0,0,0,0,0,0,0,0,0,0,0,0,0,0,0,0,0,0,0,0,0,0,0,0,0,0,0,0,0,0,0,0,0,0,0]}],[{"header":{"parameterUnit":"kt","parameterCategory":2,"dx":1,"dy":1,"la1":30.253999710083008,"la2":30.299108505249023,"lo1":-89.0895004272461,"lo2":-89.04439544677734,"nx":28,"ny":28,"refTime":"2022-10-11T21:00:00:Z","depth":0,"parameterNumber":2,"parameterNumberName":"V-component_of_WINDS"},"data":[5.0193,5.017,5.0149,5.0112,5.0086,5.0056,5.0038,5.0012,4.9985,4.9945,4.9918,4.9891,4.9853,4.9813,4.978,4.9768,4.9755,4.9765,4.9749,4.9731,4.9727,4.9723,4.9727,4.9763,4.9763,4.977,4.977,4.977,5.0183,5.0157,5.0132,5.0092,5.0069,5.0047,5.0013,4.9994,4.9968,4.9934,4.9906,4.9868,4.9834,4.9791,4.9754,4.974,4.9726,4.9732,4.9731,4.9725,4.9706,4.9711,4.9744,4.9744,4.9744,4.9744,4.9744,4.9744,5.0159,5.0146,5.0109,5.0081,5.0054,5.0027,5.001,4.9978,4.9951,4.9911,4.9888,4.9856,4.9816,4.9758,4.9732,4.9705,4.9694,4.9691,4.969,4.969,4.9693,4.9685,4.9697,4.9697,4.9697,4.9697,4.9696,0,5.0134,5.0116,5.009,5.0057,5.0034,5.0006,4.9975,4.9964,4.9915,4.9895,4.9862,4.9839,4.9792,4.9757,4.9716,4.9689,4.966,4.9655,4.9652,4.9663,4.9678,4.9669,4.9637,4.9654,4.9653,4.9653,4.9653,4.9652,5.0106,5.0095,5.0044,5.0029,5.0006,4.9981,4.9961,4.9919,4.9899,4.9854,4.9843,4.9808,4.9778,4.9727,4.9686,4.965,4.9635,4.9644,4.9629,4.9641,4.9633,4.9634,4.9632,4.9647,4.9648,4.9648,4.9649,0,5.0093,5.0056,5.0029,4.9979,4.9966,4.9955,4.9911,4.9896,4.9865,4.9839,4.983,4.9781,4.9748,4.9706,4.9659,4.9637,4.9614,4.9602,4.9629,4.9623,4.9626,4.9626,4.9644,4.9644,4.9608,4.9608,4.9608,0,5.0054,5.004,4.9984,4.9971,4.9953,4.9911,4.9894,4.9866,4.9831,4.981,4.9772,4.9753,4.97,4.9674,4.9642,4.9616,4.9607,4.9588,4.9579,4.9591,4.9593,4.9577,4.9574,4.9562,4.9562,4.9562,4.9562,0,5.0036,4.9989,4.9968,4.9951,4.9894,4.9885,4.986,4.9821,4.98,4.9767,4.9753,4.9717,4.9696,4.9668,4.9627,4.9618,4.9595,4.9574,4.9575,4.9576,4.957,4.9571,4.96,4.9561,4.9561,4.9561,4.9561,0,4.9998,4.9968,4.9943,4.9895,4.9884,4.9869,4.9831,4.9809,4.9769,4.9748,4.9721,4.9689,4.9664,4.9647,4.9611,4.9611,4.9593,4.9572,4.9572,4.9565,4.9546,4.9567,4.9601,4.9602,4.9561,4.9561,4.9561,0,4.9987,4.9951,4.9915,4.9891,4.9868,4.9827,4.981,4.9776,4.9747,4.9721,4.9688,4.9659,4.9637,4.9621,4.9609,4.9573,4.9572,4.9572,4.9532,4.9531,4.9543,4.9574,4.9589,4.9599,4.9561,4.9561,4.9561,0,4.9974,4.9907,4.9905,4.9883,4.9833,4.9813,4.9793,4.9755,4.9741,4.9706,4.9687,4.9645,4.9626,4.9601,4.9571,4.956,4.9571,4.9541,4.9539,4.9547,4.9557,4.9572,4.9574,4.9553,4.9553,4.9553,4.956,0,4.9923,4.99,4.9894,4.9847,4.9825,4.9808,4.9763,4.9746,4.972,4.9689,4.966,4.9618,4.9578,4.9568,4.9542,4.9533,4.9527,4.9507,4.9484,4.9506,4.9507,4.9508,4.9487,4.9486,4.9485,4.9485,0,0,4.9921,4.9887,4.9846,4.9826,4.9805,4.9762,4.9747,4.9721,4.9668,4.9654,4.9642,4.9577,4.9543,4.9512,4.9515,4.9499,4.9492,4.9486,4.9497,4.9498,4.9499,4.9502,4.9503,4.9483,4.9483,4.9483,4.9482,0,4.9893,4.9864,4.9851,4.9823,4.9779,4.9747,4.9744,4.9693,4.9672,4.9643,4.9606,4.9582,4.9531,4.95,4.9477,4.949,4.9461,4.9481,4.9503,4.949,4.9493,4.9495,4.9498,4.95,4.948,4.9481,4.9481,0,4.9871,4.9834,4.9823,4.9774,4.9745,4.9721,4.9689,4.9665,4.9647,4.9598,4.9569,4.954,4.9495,4.9471,4.9459,4.9447,4.9435,4.943,4.9434,4.9431,4.9416,4.942,4.9423,4.9385,4.9384,4.9384,0,0,4.9852,4.983,4.9776,4.9764,4.9749,4.9701,4.9683,4.9655,4.9617,4.9602,4.9563,4.9526,4.9495,4.9476,4.9444,4.9425,4.9411,4.9421,4.9425,4.9429,4.9428,4.9415,4.9418,4.9384,4.9384,4.9384,0,0,4.9842,4.978,4.9761,4.9742,4.9708,4.9652,4.9646,4.962,4.9588,4.9584,4.9533,4.9521,4.9498,4.947,4.9469,4.9435,4.9414,4.9413,4.9454,4.9459,4.9463,4.947,4.9426,0,0,0,0,0,4.979,4.9788,4.9771,4.9762,4.9698,4.9662,4.9653,4.9613,4.9599,4.9595,4.9559,4.9529,4.9459,4.9457,4.9446,4.9447,4.9377,4.9378,4.938,4.9427,4.9433,4.9438,0,0,0,0,0,0,4.9786,4.9774,4.9771,4.9717,4.9702,4.9662,4.963,4.9619,4.9599,4.9594,4.9537,4.9527,4.949,4.9459,4.945,4.9452,4.9429,4.9378,4.9379,4.938,4.9429,4.9434,4.9438,0,0,0,0,0,4.9782,4.9772,4.9681,4.9716,4.9703,4.9649,4.963,4.962,4.9604,4.9546,4.9536,4.9575,4.9492,4.9481,4.9453,4.9457,4.9435,4.9432,4.9378,4.9379,4.938,4.9431,0,0,0,0,0,0,4.9779,4.9762,4.9678,4.9672,4.9714,4.965,4.9639,4.9622,4.9556,4.9546,4.9581,4.9578,4.9492,4.9484,4.9476,4.9461,4.944,4.9436,4.9434,4.9379,4.938,4.938,0,0,0,0,0,0,4.9767,4.9758,4.9675,4.9674,4.9668,4.9651,4.9641,4.9611,4.9556,4.9595,4.959,4.9581,4.9503,4.9486,4.948,4.9435,4.9443,4.944,4.9438,4.9437,4.938,4.938,0,0,0,0,0,0,4.9763,4.9755,4.9675,4.9671,4.9666,4.96,4.9624,4.956,4.9559,4.9598,4.9557,4.9556,4.9506,4.9499,4.9483,4.944,4.9436,4.9443,4.9441,4.944,4.9439,0,0,0,0,0,0,0,4.9759,4.9822,4.9711,4.9668,4.9663,4.9621,4.962,4.9618,4.9558,4.9558,4.9557,4.9557,4.946,4.9457,4.9454,4.9445,0,0,4.9443,4.9442,0,0,0,0,0,0,0,0,4.9825,4.9823,4.9711,4.971,4.9708,4.9621,4.962,4.9618,4.9558,4.9558,4.9557,4.9557,4.9459,4.9457,4.9454,0,0,0,0,0,0,0,0,0,0,0,0,0,0,0,4.9711,4.971,0,4.9621,4.962,4.9619,4.9558,4.9558,4.9557,4.9557,4.9459,4.9456,4.9454,0,0,0,0,0,0,0,0,0,0,0,0,0,0,0,0,0,0,0,0,0,0,0,0,0,0,0,0,0,0,0,0,0,0,0,0,0,0,0,0,0,0,0,0,0,0,0,0,0,0,0,0,0,0,0,0,0,0,0,0,0,0,0,0,0,0,0,0,0]}]]]